Flag for China Weather past 2 weeks in Shantou, Guangdong, China

Now
79 °F

Passing clouds.


Feels Like: 83 °F
Forecast: 79 / 87 °F
Wind: No wind

Location: Shantou Airport

Current Time: May 29, 2015 at 4:54:43 AM

Latest Report: May 29, 2015 at 4:00 AM


Visibility: 4 mi

Pressure: 29.68 "Hg

Humidity: 100%

Dew point: 79 °F

Location of ShantouLocation

Historic Weather in Shantou — Graph

°F

Shantou temperature yesterday

Maximum temperature yesterday: 91 °F (at 1:00 PM)
Minimum temperature yesterday: 77 °F (at 3:00 AM)
Average temperature yesterday: 84 °F

Past Weeks' High & Low Weather Summary

 TemperatureHumidityPressure
High91 °F (May 15, 4:00 PM)100% (May 14, 3:00 AM)29.95 "Hg (May 14, 3:00 AM)
Low68 °F (May 22, 3:00 AM)59% (May 14, 1:00 PM)29.59 "Hg (May 28, 3:00 PM)
Average78 °F92%29.78 "Hg
* Reported May 14 3:00 AM — May 29 3:00 AM, Shantou, Weather by CustomWeather, © 2015

Note: Actual official high and low records may vary slightly from our data, if they occured in-between our weather recording intervals... More about our weather records

Advertising

Shantou weather history for previous 24 hours

 ConditionsComfort  
Time TempWeatherWind HumidityBarometerVisibility
3:00 AM
Fri, May 29
81 °FPassing clouds.3 mph100%29.68 "HgN/A
2:00 AM82 °FPassing clouds.3 mph94%29.68 "HgN/A
1:00 AM81 °FClear.No wind100%29.68 "Hg10 mi
12:00 AM81 °FClear.No wind94%29.71 "Hg10 mi
11:00 PM
Thu, May 28
82 °FClear.3 mph94%29.71 "Hg10 mi
10:00 PM84 °FPassing clouds.6 mph89%29.71 "HgN/A
9:00 PM84 °FPassing clouds.6 mph89%29.68 "HgN/A
8:00 PM84 °FPassing clouds.3 mph89%29.65 "HgN/A
7:00 PM86 °FPassing clouds.6 mph84%29.65 "HgN/A
6:00 PM88 °FPartly sunny.8 mph79%29.62 "HgN/A
5:00 PM90 °FPartly sunny.10 mph75%29.62 "HgN/A
4:00 PM90 °FBroken clouds.13 mph75%29.59 "HgN/A
3:00 PM91 °FBroken clouds.13 mph75%29.59 "HgN/A
2:00 PM90 °FScattered clouds.10 mph79%29.62 "HgN/A
1:00 PM91 °FScattered clouds.8 mph71%29.65 "HgN/A
12:00 PM90 °FScattered clouds.3 mph75%29.68 "HgN/A
11:00 AM90 °FBroken clouds.6 mph75%29.71 "HgN/A
10:00 AM88 °FScattered clouds.3 mph79%29.71 "HgN/A
9:00 AM86 °FScattered clouds.1 mph84%29.74 "Hg5 mi
8:00 AM84 °FFog.No wind89%29.71 "Hg2 mi
7:00 AM79 °FFog.1 mph100%29.71 "Hg1 mi
6:00 AM77 °FFog.1 mph100%29.71 "Hg1 mi
5:00 AM77 °FFog.No wind100%29.68 "Hg1 mi
4:00 AM77 °FFog.No wind100%29.68 "Hg1 mi
Weather by CustomWeather, © 2015

See weather overviewHow to use our weather pages